Location: Dittelbrunn
(50.0738°N, 10.2196°E)
Time: 04:39:23
(UTC+00:00)

NOSS 3-1 (C) - Pass Details

Date: 18 September 2020
Orbit: 743 x 1466 km, 63.4° (Epoch: 09 October)

Event Time Altitude Azimuth Distance (km) Brightness Sun altitude
Rises 23:20:51 0° 315° (NW) 3,833 7.1 -38.5°
Reaches altitude 10° 23:23:20 10° 318° (NW) 2,974 6.4 -38.5°
Enters shadow 23:28:49 55° 341° (NNW) 1,441 4.4 -38.4°
